Location: Luz Observatory
(34.5000°N, 117.2833°W)
Time: 12:33:41
(UTC-07:00)

Okean 3 Rocket - Visible Passes

Search period start: 17 September 2014 00:00
Search period end: 27 September 2014 00:00
Orbit: 617 x 646 km, 82.5° (Epoch: 16 September)

Date Brightness Start Highest point End Pass type
(mag) Time Alt. Az. Time Alt. Az. Time Alt. Az.
19 Sep 6.6 05:31:12 10° SE 05:34:31 20° E 05:37:50 10° NE visible
20 Sep 5.1 05:51:22 10° SSE 05:55:39 43° E 05:59:57 10° NNE visible
22 Sep 6.8 04:57:59 10° ESE 05:00:34 15° E 05:03:09 10° NE visible
23 Sep 5.6 05:17:38 10° SSE 05:21:39 32° E 05:25:40 10° NNE visible
24 Sep 3.9 05:38:21 10° S 05:42:52 71° E 05:47:23 10° NNE visible
25 Sep 6.9 04:25:22 10° E 04:26:37 11° E 04:27:52 10° ENE visible
25 Sep 3.8 05:59:47 10° SSW 06:04:11 51° W 06:08:37 10° N visible
26 Sep 6.0 04:44:03 10° SE 04:47:40 24° E 04:51:17 10° NE visible
